Weather History for KCQX - February, 2014

Change the Weather History Date:

Thursday, February 6, 2014

  Actual Average (WUND) Record (WUND)
Temperature  
Mean Temperature 26 °F -  
Max Temperature 32 °F - - (-1)
Min Temperature 21 °F - - (-1)
Degree Days  
Heating Degree Days 38    
Moisture  
Dew Point 23 °F    
Average Humidity 81    
Maximum Humidity 92    
Minimum Humidity 72    
Precipitation  
Precipitation 0.01 in - - ()
Sea Level Pressure  
Sea Level Pressure 30.13 in    
Wind  
Wind Speed 6 mph (NW)    
Max Wind Speed 10 mph    
Max Gust Speed 17 mph    
Visibility 7 miles    
Events Snow    
Averages and records for this station are not official NWS values.
T = Trace of Precipitation, MM = Missing Value Source: NWS Daily Summary

Daily Weather History Graph

Daily Weather History Graph

Search for Another Location

Airport or City:

Trip Planner

Search our weather history database for the weather conditions in past years. The results will help you decide how hot, cold, wet, or windy it might be!

Date:

Astronomy

Feb. 06, 2014 Rise Set
Actual Time 6:46 AM EST 5:01 PM EST
Civil Twilight 6:17 AM EST 5:31 PM EST
Nautical Twilight 5:44 AM EST 6:04 PM EST
Astronomical Twilight 5:12 AM EST 6:36 PM EST
Moon 10:31 AM EST (2/6) No Moon Set
Length of Visible Light 11h 13m
Length of Day
10h 15m
Waxing Crescent, 49% of the Moon is Illuminated
Feb 6
Waxing Crescent
Feb 6
First Quarter
Feb 14
Full
Feb 22
Last Quarter
Mar 1
New

Hourly Weather History & Observations

Time (EST) Temp. Windchill Dew Point Humidity Pressure Visibility Wind Dir Wind Speed Gust Speed Precip Events Conditions
12:04 AM 32.0 °F 24.8 °F 28.9 °F 88% 29.86 in 2.5 mi North 8.1 mph - 0.00 in Snow Light Snow
12:18 AM 30.9 °F 23.5 °F 28.0 °F 89% 29.87 in 2.5 mi North 8.1 mph - 0.00 in Snow Light Snow
12:28 AM 30.9 °F 24.3 °F 28.0 °F 89% 29.88 in 3.0 mi North 6.9 mph - 0.00 in Snow Light Snow
12:36 AM 30.9 °F 24.3 °F 28.0 °F 89% 29.89 in 2.5 mi Variable 6.9 mph - 0.00 in Snow Light Snow
12:52 AM 30.9 °F 24.3 °F 28.0 °F 89% 29.91 in 2.5 mi Variable 6.9 mph - 0.01 in Snow Light Snow
1:01 AM 30.9 °F 23.5 °F 28.0 °F 89% 29.91 in 3.0 mi North 8.1 mph - 0.00 in Snow Light Snow
1:33 AM 30.0 °F 24.1 °F 28.0 °F 92% 29.93 in 4.0 mi Variable 5.8 mph - 0.00 in Snow Light Snow
1:52 AM 30.0 °F 22.4 °F 27.0 °F 88% 29.95 in 6.0 mi North 8.1 mph - 0.00 in Snow Light Snow
2:52 AM 30.0 °F 24.1 °F 24.1 °F 79% 29.98 in 10.0 mi Variable 5.8 mph 17.3 mph 0.00 in   Overcast
3:52 AM 28.9 °F 25.2 °F 23.0 °F 78% 30.02 in 10.0 mi Variable 3.5 mph - N/A   Overcast
4:52 AM 28.9 °F 22.8 °F 23.0 °F 78% 30.07 in 10.0 mi Variable 5.8 mph - N/A   Overcast
5:44 AM 28.9 °F 23.9 °F 21.9 °F 75% 30.09 in 10.0 mi Variable 4.6 mph - N/A   Overcast
5:52 AM 28.9 °F 22.8 °F 21.9 °F 75% 30.10 in 10.0 mi Variable 5.8 mph - N/A   Overcast
6:15 AM 28.9 °F 22.8 °F 21.9 °F 75% 30.11 in 10.0 mi Variable 5.8 mph - N/A   Overcast
6:52 AM 28.9 °F 22.8 °F 21.0 °F 72% 30.14 in 10.0 mi North 5.8 mph - N/A   Overcast
7:52 AM 28.9 °F 25.2 °F 21.0 °F 72% 30.18 in 10.0 mi North 3.5 mph - N/A   Overcast
8:52 AM 28.9 °F 21.9 °F 21.9 °F 75% 30.20 in 7.0 mi NNW 6.9 mph - 0.00 in Snow Light Snow
9:52 AM 30.0 °F 25.2 °F 21.9 °F 72% 30.23 in 10.0 mi Variable 4.6 mph - 0.00 in   Overcast
10:24 AM 28.0 °F 21.7 °F 23.0 °F 81% 30.23 in 2.5 mi NW 5.8 mph - 0.00 in Snow Light Snow
10:35 AM 27.0 °F 19.5 °F 23.0 °F 85% 30.23 in 2.0 mi Variable 6.9 mph - 0.00 in Snow Light Snow
10:52 AM 27.0 °F 17.3 °F 21.9 °F 81% 30.25 in 2.0 mi NW 10.4 mph - 0.00 in Snow Light Snow
11:07 AM 27.0 °F 19.5 °F 21.9 °F 81% 30.23 in 4.0 mi Variable 6.9 mph - 0.00 in Snow Light Snow
11:31 AM 27.0 °F 18.7 °F 21.0 °F 78% 30.23 in 3.0 mi NW 8.1 mph - 0.00 in Snow Light Snow
11:52 AM 28.0 °F 20.0 °F 21.9 °F 78% 30.23 in 7.0 mi NW 8.1 mph 17.3 mph 0.00 in   Overcast
12:04 PM 28.0 °F 18.6 °F 21.9 °F 78% 30.22 in 7.0 mi NW 10.4 mph - 0.00 in Snow Light Snow
12:37 PM 30.0 °F 21.7 °F 21.9 °F 72% 30.21 in 9.0 mi NW 9.2 mph - 0.00 in   Overcast
12:52 PM 30.0 °F 23.2 °F 21.9 °F 72% 30.22 in 10.0 mi Variable 6.9 mph - 0.00 in   Overcast
1:52 PM 28.9 °F 20.4 °F 21.0 °F 72% 30.22 in 10.0 mi North 9.2 mph - N/A   Partly Cloudy
2:52 PM 28.9 °F 22.8 °F 21.0 °F 72% 30.23 in 10.0 mi Variable 5.8 mph - N/A   Clear
3:52 PM 28.0 °F 22.8 °F 21.0 °F 75% 30.24 in 10.0 mi Variable 4.6 mph - N/A   Clear
4:52 PM 27.0 °F - 21.0 °F 78% 30.24 in 10.0 mi Calm Calm - N/A   Clear
5:52 PM 24.1 °F - 19.9 °F 84% 30.23 in 10.0 mi Calm Calm - N/A   Clear
6:52 PM 21.0 °F - 18.0 °F 88% 30.24 in 9.0 mi Calm Calm - N/A   Partly Cloudy
7:52 PM 21.0 °F 16.2 °F 18.0 °F 88% 30.25 in 8.0 mi West 3.5 mph - N/A   Clear
8:52 PM 21.0 °F - 19.0 °F 92% 30.23 in 7.0 mi Calm Calm - N/A   Mostly Cloudy
9:52 PM 23.0 °F - 19.9 °F 88% 30.24 in 6.0 mi Calm Calm - N/A   Overcast
10:12 PM 23.0 °F 18.4 °F 19.9 °F 88% 30.22 in 9.0 mi WSW 3.5 mph - N/A   Scattered Clouds
10:52 PM 23.0 °F 18.4 °F 19.9 °F 88% 30.22 in 10.0 mi West 3.5 mph - N/A   Clear
11:52 PM 24.1 °F 19.7 °F 21.0 °F 88% 30.21 in 10.0 mi WNW 3.5 mph - N/A   Mostly Cloudy